Detroit Metro, MI

12:15 PM EDT on July 27, 2017 (GMT -0400)
Detroit Metro Wayne County

Weather History for KDTW - November, 2012

Change the Weather History Date:

Friday, November 9, 2012

  Actual Average Record
Temperature  
Mean Temperature 42 °F 44 °F  
Max Temperature 54 °F 52 °F 75 °F (1999)
Min Temperature 30 °F 37 °F 18 °F (1991)
Degree Days  
Heating Degree Days 23 21  
Month to date heating degree days 233 174  
Since 1 July heating degree days 726 685  
Cooling Degree Days 0 0  
Month to date cooling degree days 0 0  
Year to date cooling degree days 1156 803  
Moisture  
Dew Point 34 °F    
Average Humidity 73    
Maximum Humidity 92    
Minimum Humidity 54    
Precipitation  
Precipitation T in 0.09 in 1.38 in (1897)
Month to date precipitation 0.01 0.81  
Year to date precipitation 23.76 29.03  
Snow  
Snow 0.00 in 0.10 in 5.30 in (1921)
Month to date snowfall 0.0 0.2  
Since 1 July snowfall T 0.3  
Since 1 September snowfall T 0.3  
Snow Depth 0.00 in    
Sea Level Pressure  
Sea Level Pressure 30.17 in    
Wind  
Wind Speed 4 mph (SSE)    
Max Wind Speed 13 mph    
Max Gust Speed 15 mph    
Visibility 5 miles    
Events Rain    
T = Trace of Precipitation, MM = Missing Value Source: NWS Daily Summary

Daily Weather History Graph

Daily Weather History Graph

Search for Another Location

Airport or City:

Trip Planner

Search our weather history database for the weather conditions in past years. The results will help you decide how hot, cold, wet, or windy it might be!

Date:

Astronomy

Nov. 09, 2012 Rise Set
Actual Time 7:16 AM EST 5:17 PM EST
Civil Twilight 6:47 AM EST 5:46 PM EST
Nautical Twilight 6:13 AM EST 6:20 PM EST
Astronomical Twilight 5:40 AM EST 6:53 PM EST
Moon 2:09 AM EST (11/9) 2:34 PM EST (11/9)
Length of Visible Light 10h 59m
Length of Day
10h 00m
Waning Crescent, 23% of the Moon is Illuminated
Nov 9
Waning Crescent
Nov 13
New
Nov 20
First Quarter
Nov 28
Full
Dec 6
Last Quarter

Hourly Weather History & Observations

Time (EST) Temp. Windchill Dew Point Humidity Pressure Visibility Wind Dir Wind Speed Gust Speed Precip Events Conditions
12:09 AM 35.6 °F 32.8 °F 32.0 °F 87% 30.16 in 3.0 mi South 3.5 mph - N/A   Scattered Clouds
12:30 AM 35.6 °F 32.8 °F 32.0 °F 87% 30.16 in 2.5 mi South 3.5 mph - N/A   Mostly Cloudy
12:48 AM 35.6 °F - 32.0 °F 87% 30.16 in 2.5 mi Calm Calm - N/A   Mostly Cloudy
12:53 AM 35.1 °F - 32.0 °F 89% 30.17 in 2.5 mi Calm Calm - N/A   Mostly Cloudy
1:43 AM 33.8 °F - 30.2 °F 87% 30.15 in 3.0 mi Calm Calm - N/A   Mostly Cloudy
1:53 AM 34.0 °F - 30.0 °F 85% 30.17 in 3.0 mi Calm Calm - N/A   Mostly Cloudy
2:53 AM 32.0 °F - 28.0 °F 85% 30.18 in 3.0 mi Calm Calm - N/A   Mostly Cloudy
3:53 AM 32.0 °F - 28.0 °F 85% 30.19 in 3.0 mi Calm Calm - N/A   Mostly Cloudy
4:53 AM 30.9 °F 27.5 °F 28.0 °F 89% 30.20 in 5.0 mi South 3.5 mph - N/A   Mostly Cloudy
5:53 AM 32.0 °F 28.7 °F 28.9 °F 88% 30.21 in 4.0 mi South 3.5 mph - N/A   Overcast
6:16 AM 33.8 °F 30.8 °F 30.2 °F 87% 30.19 in 4.0 mi South 3.5 mph - N/A   Overcast
6:53 AM 33.1 °F 30.0 °F 30.0 °F 89% 30.22 in 3.0 mi South 3.5 mph - N/A   Overcast
7:12 AM 33.8 °F 29.6 °F 30.2 °F 87% 30.19 in 2.0 mi South 4.6 mph - N/A   Overcast
7:53 AM 35.1 °F 32.2 °F 30.9 °F 85% 30.22 in 2.5 mi South 3.5 mph - N/A   Overcast
7:57 AM 35.6 °F 31.7 °F 30.2 °F 81% 30.20 in 3.0 mi South 4.6 mph - N/A   Overcast
8:53 AM 37.9 °F 34.4 °F 33.1 °F 83% 30.24 in 4.0 mi South 4.6 mph - N/A   Haze
9:53 AM 39.9 °F 35.8 °F 34.0 °F 79% 30.23 in 5.0 mi South 5.8 mph - N/A   Haze
10:53 AM 44.1 °F 39.5 °F 36.0 °F 73% 30.22 in 6.0 mi SSW 8.1 mph - N/A   Haze
11:53 AM 46.9 °F - 36.0 °F 66% 30.20 in 7.0 mi SSW 9.2 mph - N/A   Mostly Cloudy
12:53 PM 51.1 °F - 37.0 °F 59% 30.18 in 8.0 mi SSW 6.9 mph - N/A   Partly Cloudy
1:53 PM 53.1 °F - 37.0 °F 55% 30.15 in 8.0 mi South 10.4 mph - N/A   Scattered Clouds
2:53 PM 54.0 °F - 37.0 °F 53% 30.14 in 9.0 mi South 10.4 mph - N/A   Scattered Clouds
3:53 PM 53.1 °F - 37.9 °F 57% 30.14 in 8.0 mi South 9.2 mph - N/A   Scattered Clouds
4:53 PM 50.0 °F - 37.9 °F 63% 30.13 in 8.0 mi SE 6.9 mph - N/A   Mostly Cloudy
5:53 PM 48.9 °F - 37.9 °F 66% 30.13 in 9.0 mi ESE 4.6 mph - N/A   Overcast
6:53 PM 48.0 °F - 39.0 °F 71% 30.13 in 8.0 mi ESE 3.5 mph - N/A   Overcast
7:53 PM 48.9 °F - 39.9 °F 71% 30.13 in 8.0 mi Calm Calm - N/A   Overcast
8:53 PM 48.9 °F - 39.9 °F 71% 30.12 in 7.0 mi ENE 3.5 mph - 0.00 in   Overcast
9:53 PM 48.9 °F - 39.9 °F 71% 30.13 in 7.0 mi ENE 3.5 mph - 0.00 in   Overcast
10:53 PM 48.9 °F - 41.0 °F 74% 30.14 in 6.0 mi NE 4.6 mph - 0.00 in   Haze
11:53 PM 48.9 °F - 42.1 °F 77% 30.15 in 6.0 mi Calm Calm - 0.00 in Rain Light Rain